JZA089 CYVR-CYPR

Flight info

Callsign JZA089
Flight time 1h 32m
Altitude 24000
Route TREEL DCT UQQ DCT YZT DCT PR
Aircraft DH8D/M-SDE2E3FGRY/H

Departure

Time 2026-05-04 19:28
Airport Vancouver International Airport (CYVR)

Arrival

Time 2026-05-04 21:01
Airport Prince Rupert Airport (CYPR)
Time Latitude Longitude Altitude Speed Heading
2026-05-04 19:12 49.19477 -123.18483 11 ft 0 kts 127°
2026-05-04 19:22 49.19477 -123.18482 10 ft 0 kts 127°
2026-05-04 19:22 49.19477 -123.18481 10 ft 0 kts 128°
2026-05-04 19:23 49.19470 -123.18480 10 ft 2 kts 195°
2026-05-04 19:23 49.19438 -123.18515 10 ft 11 kts 215°
2026-05-04 19:23 49.19363 -123.18570 10 ft 11 kts 201°
2026-05-04 19:23 49.19299 -123.18598 10 ft 8 kts 193°
2026-05-04 19:24 49.19240 -123.18608 10 ft 9 kts 168°
2026-05-04 19:24 49.19180 -123.18564 10 ft 9 kts 179°
2026-05-04 19:24 49.19115 -123.18610 10 ft 12 kts 183°
2026-05-04 19:24 49.19036 -123.18540 10 ft 14 kts 142°
2026-05-04 19:25 49.18964 -123.18443 10 ft 14 kts 122°
2026-05-04 19:25 49.18937 -123.18284 10 ft 16 kts 100°
2026-05-04 19:25 49.18917 -123.18110 10 ft 16 kts 100°
2026-05-04 19:25 49.18897 -123.17931 10 ft 17 kts 100°
2026-05-04 19:26 49.18876 -123.17750 10 ft 17 kts 101°
2026-05-04 19:26 49.18855 -123.17569 10 ft 17 kts 99°
2026-05-04 19:26 49.18836 -123.17390 10 ft 16 kts 99°
2026-05-04 19:26 49.18777 -123.17280 10 ft 13 kts 195°
2026-05-04 19:27 49.18728 -123.17398 10 ft 13 kts 250°
2026-05-04 19:27 49.18697 -123.17530 10 ft 12 kts 252°
2026-05-04 19:27 49.18665 -123.17653 10 ft 12 kts 246°
2026-05-04 19:27 49.18673 -123.17831 10 ft 39 kts 281°
2026-05-04 19:28 49.18771 -123.18688 11 ft 119 kts 280°
2026-05-04 19:28 49.18940 -123.20147 160 ft 148 kts 281°
2026-05-04 19:28 49.19104 -123.21662 767 ft 146 kts 280°
2026-05-04 19:28 49.19283 -123.23232 1201 ft 158 kts 281°
2026-05-04 19:29 49.19455 -123.24938 1663 ft 168 kts 279°
2026-05-04 19:29 49.19634 -123.26806 1970 ft 188 kts 280°
2026-05-04 19:29 49.19976 -123.28775 2264 ft 200 kts 292°
2026-05-04 19:29 49.20528 -123.30775 2658 ft 208 kts 294°
2026-05-04 19:30 49.21109 -123.32850 3052 ft 217 kts 294°
2026-05-04 19:30 49.21705 -123.34992 3492 ft 223 kts 294°
2026-05-04 19:30 49.22315 -123.37199 3960 ft 227 kts 294°
2026-05-04 19:30 49.22938 -123.39464 4454 ft 230 kts 294°
2026-05-04 19:31 49.23550 -123.41695 4956 ft 233 kts 294°
2026-05-04 19:31 49.24176 -123.43984 5478 ft 234 kts 294°
2026-05-04 19:31 49.24805 -123.46288 5986 ft 235 kts 294°
2026-05-04 19:31 49.25429 -123.48579 6470 ft 236 kts 294°
2026-05-04 19:32 49.26062 -123.50906 7004 ft 237 kts 294°
2026-05-04 19:32 49.26683 -123.53192 7488 ft 237 kts 294°
2026-05-04 19:32 49.27320 -123.55536 7975 ft 238 kts 294°
2026-05-04 19:32 49.27954 -123.57875 8469 ft 238 kts 294°
2026-05-04 19:33 49.28587 -123.60213 8966 ft 239 kts 295°
2026-05-04 19:33 49.29214 -123.62529 9456 ft 238 kts 294°
2026-05-04 19:33 49.29843 -123.64859 9937 ft 238 kts 295°
2026-05-04 19:33 49.30477 -123.67207 10383 ft 237 kts 295°
2026-05-04 19:34 49.31105 -123.69534 10810 ft 237 kts 295°
2026-05-04 19:34 49.31725 -123.71837 11229 ft 236 kts 295°
2026-05-04 19:34 49.32353 -123.74168 11655 ft 236 kts 295°
2026-05-04 19:34 49.32968 -123.76457 12077 ft 235 kts 295°
2026-05-04 19:35 49.33596 -123.78790 12414 ft 238 kts 296°
2026-05-04 19:35 49.34226 -123.81136 12719 ft 240 kts 295°
2026-05-04 19:35 49.34870 -123.83536 13052 ft 242 kts 296°
2026-05-04 19:35 49.35509 -123.85915 13383 ft 242 kts 296°
2026-05-04 19:36 49.36245 -123.88232 13728 ft 241 kts 302°
2026-05-04 19:36 49.37034 -123.90462 14037 ft 240 kts 302°
2026-05-04 19:36 49.37833 -123.92720 14365 ft 240 kts 302°
2026-05-04 19:36 49.38627 -123.94965 14688 ft 240 kts 302°
2026-05-04 19:37 49.39411 -123.97188 14976 ft 239 kts 302°
2026-05-04 19:37 49.40200 -123.99428 15278 ft 238 kts 302°
2026-05-04 19:37 49.40982 -124.01652 15565 ft 237 kts 302°
2026-05-04 19:37 49.41763 -124.03876 15859 ft 236 kts 302°
2026-05-04 19:38 49.42538 -124.06086 16117 ft 235 kts 302°
2026-05-04 19:38 49.43312 -124.08295 16373 ft 234 kts 303°
2026-05-04 19:38 49.44081 -124.10493 16662 ft 233 kts 303°
2026-05-04 19:38 49.44842 -124.12671 16906 ft 233 kts 303°
2026-05-04 19:39 49.45610 -124.14869 17109 ft 232 kts 303°
2026-05-04 19:39 49.46370 -124.17046 17349 ft 231 kts 303°
2026-05-04 19:39 49.47131 -124.19228 17584 ft 231 kts 303°
2026-05-04 19:39 49.47883 -124.21387 17780 ft 231 kts 303°
2026-05-04 19:40 49.48635 -124.23547 17968 ft 231 kts 303°
2026-05-04 19:40 49.49391 -124.25720 18149 ft 231 kts 303°
2026-05-04 19:40 49.50151 -124.27905 18350 ft 231 kts 303°
2026-05-04 19:40 49.50909 -124.30088 18578 ft 231 kts 303°
2026-05-04 19:41 49.51659 -124.32252 18761 ft 231 kts 303°
2026-05-04 19:41 49.52412 -124.34423 18964 ft 231 kts 303°
2026-05-04 19:41 49.53169 -124.36609 19159 ft 231 kts 303°
2026-05-04 19:41 49.53923 -124.38789 19332 ft 231 kts 304°
2026-05-04 19:42 49.54671 -124.40952 19517 ft 231 kts 304°
2026-05-04 19:42 49.55431 -124.43152 19706 ft 231 kts 304°
2026-05-04 19:42 49.56181 -124.45325 19872 ft 231 kts 304°
2026-05-04 19:42 49.56933 -124.47507 20025 ft 232 kts 304°
2026-05-04 19:43 49.57690 -124.49703 20184 ft 232 kts 304°
2026-05-04 19:43 49.58445 -124.51897 20348 ft 232 kts 304°
2026-05-04 19:43 49.59192 -124.54068 20507 ft 232 kts 304°
2026-05-04 19:43 49.59954 -124.56285 20669 ft 233 kts 304°
2026-05-04 19:44 49.60706 -124.58474 20818 ft 233 kts 304°
2026-05-04 19:44 49.61457 -124.60664 20970 ft 233 kts 304°
2026-05-04 19:44 49.62214 -124.62874 21116 ft 233 kts 304°
2026-05-04 19:44 49.62973 -124.65089 21260 ft 233 kts 303°
2026-05-04 19:45 49.63731 -124.67307 21398 ft 234 kts 304°
2026-05-04 19:45 49.64490 -124.69526 21540 ft 234 kts 304°
2026-05-04 19:45 49.65247 -124.71739 21682 ft 234 kts 304°
2026-05-04 19:45 49.66000 -124.73949 21818 ft 234 kts 304°
2026-05-04 19:46 49.66761 -124.76181 21955 ft 234 kts 304°
2026-05-04 19:46 49.67511 -124.78382 22084 ft 234 kts 304°
2026-05-04 19:46 49.68275 -124.80628 22211 ft 234 kts 304°
2026-05-04 19:46 49.69021 -124.82822 22333 ft 234 kts 304°
2026-05-04 19:47 49.69785 -124.85072 22451 ft 234 kts 304°
2026-05-04 19:47 49.70538 -124.87291 22562 ft 234 kts 304°
2026-05-04 19:47 49.71292 -124.89514 22666 ft 234 kts 304°
2026-05-04 19:47 49.72101 -124.91655 22768 ft 232 kts 308°
2026-05-04 19:48 49.72977 -124.93745 22867 ft 232 kts 309°
2026-05-04 19:48 49.73848 -124.95824 22973 ft 231 kts 309°
2026-05-04 19:48 49.74720 -124.97915 23071 ft 231 kts 309°
2026-05-04 19:48 49.75588 -125.00007 23166 ft 231 kts 309°
2026-05-04 19:49 49.76448 -125.02087 23260 ft 230 kts 309°
2026-05-04 19:49 49.77309 -125.04174 23352 ft 230 kts 309°
2026-05-04 19:49 49.78163 -125.06251 23453 ft 229 kts 309°
2026-05-04 19:49 49.79010 -125.08316 23610 ft 225 kts 309°
2026-05-04 19:50 49.79841 -125.10344 23722 ft 223 kts 309°
2026-05-04 19:50 49.80660 -125.12342 23807 ft 221 kts 309°
2026-05-04 19:50 49.81484 -125.14356 23875 ft 220 kts 309°
2026-05-04 19:50 49.82307 -125.16367 23906 ft 221 kts 309°
2026-05-04 19:51 49.83121 -125.18358 23919 ft 222 kts 309°
2026-05-04 19:51 49.83950 -125.20387 23920 ft 224 kts 309°
2026-05-04 19:51 49.84794 -125.22457 23921 ft 226 kts 309°
2026-05-04 19:51 49.85635 -125.24522 23924 ft 228 kts 309°
2026-05-04 19:52 49.86483 -125.26606 23922 ft 230 kts 308°
2026-05-04 19:52 49.87340 -125.28717 23923 ft 232 kts 308°
2026-05-04 19:52 49.88195 -125.30821 23919 ft 235 kts 308°
2026-05-04 19:52 49.89073 -125.32986 23918 ft 237 kts 308°
2026-05-04 19:53 49.89951 -125.35124 23917 ft 238 kts 311°
2026-05-04 19:53 49.91114 -125.36890 23927 ft 231 kts 328°
2026-05-04 19:53 49.92487 -125.38337 23944 ft 249 kts 330°
2026-05-04 19:53 49.93976 -125.39869 23938 ft 271 kts 330°
2026-05-04 19:54 49.95602 -125.41556 23924 ft 291 kts 329°
2026-05-04 19:54 49.97345 -125.43374 23914 ft 309 kts 329°
2026-05-04 19:54 49.99134 -125.45256 23891 ft 311 kts 328°
2026-05-04 19:54 50.00898 -125.47123 23887 ft 309 kts 328°
2026-05-04 19:55 50.02668 -125.48994 23891 ft 307 kts 328°
2026-05-04 19:55 50.04444 -125.50869 23899 ft 305 kts 329°
2026-05-04 19:55 50.06176 -125.52698 23907 ft 304 kts 329°
2026-05-04 19:55 50.07919 -125.54539 23923 ft 303 kts 329°
2026-05-04 19:56 50.09658 -125.56377 23929 ft 302 kts 329°
2026-05-04 19:56 50.11391 -125.58210 23935 ft 301 kts 329°
2026-05-04 19:56 50.13128 -125.60046 23937 ft 301 kts 329°
2026-05-04 19:56 50.14875 -125.61895 23939 ft 301 kts 329°
2026-05-04 19:57 50.16589 -125.63711 23942 ft 301 kts 329°
2026-05-04 19:57 50.18332 -125.65559 23938 ft 301 kts 328°
2026-05-04 19:57 50.20043 -125.67374 23933 ft 301 kts 328°
2026-05-04 19:57 50.21774 -125.69212 23929 ft 301 kts 328°
2026-05-04 19:58 50.23501 -125.71048 23920 ft 301 kts 328°
2026-05-04 19:58 50.25226 -125.72884 23908 ft 301 kts 328°
2026-05-04 19:58 50.26947 -125.74716 23896 ft 301 kts 328°
2026-05-04 19:58 50.28678 -125.76560 23893 ft 300 kts 328°
2026-05-04 19:59 50.30393 -125.78390 23895 ft 299 kts 328°
2026-05-04 19:59 50.32116 -125.80231 23891 ft 299 kts 328°
2026-05-04 19:59 50.33829 -125.82061 23899 ft 298 kts 328°
2026-05-04 19:59 50.35529 -125.83879 23901 ft 297 kts 328°
2026-05-04 20:00 50.37224 -125.85694 23904 ft 296 kts 328°
2026-05-04 20:00 50.38931 -125.87523 23907 ft 295 kts 328°
2026-05-04 20:00 50.40608 -125.89322 23906 ft 294 kts 328°
2026-05-04 20:00 50.42273 -125.91109 23905 ft 293 kts 328°
2026-05-04 20:01 50.43950 -125.92911 23906 ft 292 kts 328°
2026-05-04 20:01 50.45626 -125.94714 23900 ft 291 kts 328°
2026-05-04 20:01 50.47284 -125.96496 23896 ft 290 kts 328°
2026-05-04 20:01 50.48965 -125.98307 23892 ft 289 kts 328°
2026-05-04 20:02 50.50619 -126.00089 23889 ft 288 kts 328°
2026-05-04 20:02 50.52255 -126.01855 23890 ft 287 kts 328°
2026-05-04 20:02 50.53905 -126.03637 23896 ft 286 kts 328°
2026-05-04 20:02 50.55528 -126.05391 23905 ft 285 kts 328°
2026-05-04 20:03 50.57162 -126.07159 23911 ft 285 kts 328°
2026-05-04 20:03 50.58782 -126.08912 23916 ft 284 kts 328°
2026-05-04 20:03 50.60400 -126.10664 23923 ft 283 kts 328°
2026-05-04 20:03 50.62018 -126.12420 23934 ft 282 kts 328°
2026-05-04 20:04 50.63621 -126.14159 23937 ft 282 kts 328°
2026-05-04 20:04 50.65249 -126.15927 23941 ft 281 kts 328°
2026-05-04 20:04 50.66853 -126.17671 23947 ft 281 kts 328°
2026-05-04 20:04 50.68456 -126.19415 23949 ft 281 kts 328°
2026-05-04 20:05 50.70052 -126.21152 23955 ft 281 kts 328°
2026-05-04 20:05 50.71655 -126.22900 23957 ft 281 kts 327°
2026-05-04 20:05 50.73258 -126.24648 23961 ft 280 kts 327°
2026-05-04 20:05 50.74859 -126.26395 23966 ft 280 kts 327°
2026-05-04 20:06 50.76451 -126.28135 23970 ft 280 kts 327°
2026-05-04 20:06 50.78055 -126.29888 23959 ft 281 kts 327°
2026-05-04 20:06 50.79650 -126.31634 23958 ft 281 kts 327°
2026-05-04 20:06 50.81264 -126.33401 23954 ft 281 kts 327°
2026-05-04 20:07 50.82864 -126.35156 23949 ft 281 kts 327°
2026-05-04 20:07 50.84480 -126.36929 23944 ft 282 kts 327°
2026-05-04 20:07 50.86082 -126.38689 23939 ft 282 kts 327°
2026-05-04 20:07 50.87687 -126.40453 23937 ft 282 kts 327°
2026-05-04 20:08 50.89296 -126.42223 23931 ft 282 kts 328°
2026-05-04 20:08 50.90895 -126.43984 23927 ft 283 kts 327°
2026-05-04 20:08 50.92525 -126.45779 23922 ft 283 kts 327°
2026-05-04 20:08 50.94136 -126.47557 23913 ft 283 kts 327°
2026-05-04 20:09 50.95750 -126.49338 23906 ft 284 kts 327°
2026-05-04 20:09 50.97356 -126.51112 23896 ft 284 kts 327°
2026-05-04 20:09 50.98989 -126.52917 23899 ft 284 kts 327°
2026-05-04 20:09 51.00590 -126.54691 23899 ft 284 kts 327°
2026-05-04 20:10 51.02217 -126.56493 23906 ft 284 kts 327°
2026-05-04 20:10 51.03818 -126.58267 23915 ft 284 kts 327°
2026-05-04 20:10 51.05446 -126.60075 23924 ft 284 kts 327°
2026-05-04 20:10 51.07056 -126.61863 23937 ft 284 kts 327°
2026-05-04 20:11 51.08664 -126.63650 23950 ft 283 kts 327°
2026-05-04 20:11 51.10278 -126.65445 23953 ft 284 kts 327°
2026-05-04 20:11 51.11896 -126.67246 23959 ft 284 kts 327°
2026-05-04 20:11 51.13514 -126.69050 23963 ft 285 kts 327°
2026-05-04 20:12 51.15143 -126.70866 23975 ft 285 kts 327°
2026-05-04 20:12 51.16760 -126.72672 23987 ft 285 kts 327°
2026-05-04 20:12 51.18370 -126.74472 23996 ft 285 kts 327°
2026-05-04 20:12 51.20008 -126.76303 24003 ft 285 kts 327°
2026-05-04 20:13 51.21631 -126.78120 24012 ft 286 kts 327°
2026-05-04 20:13 51.23249 -126.79933 24012 ft 286 kts 327°
2026-05-04 20:13 51.24878 -126.81760 24008 ft 287 kts 326°
2026-05-04 20:13 51.26500 -126.83580 24012 ft 287 kts 326°
2026-05-04 20:14 51.28127 -126.85408 24000 ft 288 kts 326°
2026-05-04 20:14 51.29754 -126.87237 23997 ft 288 kts 326°
2026-05-04 20:14 51.31393 -126.89082 23997 ft 288 kts 326°
2026-05-04 20:14 51.33041 -126.90938 23990 ft 288 kts 327°
2026-05-04 20:15 51.34665 -126.92769 23984 ft 289 kts 326°
2026-05-04 20:15 51.36311 -126.94625 23979 ft 289 kts 326°
2026-05-04 20:15 51.37953 -126.96480 23969 ft 290 kts 326°
2026-05-04 20:15 51.39586 -126.98326 23966 ft 290 kts 326°
2026-05-04 20:16 51.41229 -127.00185 23965 ft 290 kts 326°
2026-05-04 20:16 51.42886 -127.02062 23961 ft 290 kts 326°
2026-05-04 20:16 51.44522 -127.03916 23953 ft 290 kts 326°
2026-05-04 20:16 51.46164 -127.05778 23952 ft 290 kts 326°
2026-05-04 20:17 51.47796 -127.07631 23944 ft 290 kts 326°
2026-05-04 20:17 51.49448 -127.09509 23945 ft 290 kts 326°
2026-05-04 20:17 51.51085 -127.11371 23945 ft 291 kts 326°
2026-05-04 20:17 51.52748 -127.13264 23946 ft 291 kts 326°
2026-05-04 20:18 51.54380 -127.15123 23948 ft 291 kts 326°
2026-05-04 20:18 51.56042 -127.17019 23946 ft 292 kts 326°
2026-05-04 20:18 51.57680 -127.18890 23944 ft 292 kts 326°
2026-05-04 20:18 51.59338 -127.20783 23944 ft 292 kts 326°
2026-05-04 20:19 51.60975 -127.22657 23944 ft 292 kts 326°
2026-05-04 20:19 51.62625 -127.24545 23943 ft 291 kts 326°
2026-05-04 20:19 51.64280 -127.26442 23943 ft 291 kts 326°
2026-05-04 20:19 51.65911 -127.28314 23943 ft 290 kts 326°
2026-05-04 20:20 51.67567 -127.30214 23943 ft 290 kts 326°
2026-05-04 20:20 51.69193 -127.32082 23947 ft 290 kts 326°
2026-05-04 20:20 51.70830 -127.33964 23946 ft 291 kts 326°
2026-05-04 20:20 51.72489 -127.35873 23946 ft 291 kts 326°
2026-05-04 20:21 51.74130 -127.37763 23951 ft 291 kts 326°
2026-05-04 20:21 51.75769 -127.39653 23954 ft 292 kts 326°
2026-05-04 20:21 51.79077 -127.43471 23955 ft 293 kts 326°
2026-05-04 20:22 51.80721 -127.45373 23957 ft 294 kts 326°
2026-05-04 20:22 51.82395 -127.47310 23961 ft 294 kts 326°
2026-05-04 20:22 51.84049 -127.49226 23951 ft 295 kts 326°
2026-05-04 20:22 51.85704 -127.51144 23945 ft 296 kts 326°
2026-05-04 20:23 51.87384 -127.53094 23946 ft 296 kts 326°
2026-05-04 20:23 51.89053 -127.55033 23949 ft 296 kts 326°
2026-05-04 20:23 51.90733 -127.56987 23937 ft 297 kts 326°
2026-05-04 20:23 51.92391 -127.58916 23926 ft 297 kts 326°
2026-05-04 20:24 51.94076 -127.60880 23927 ft 297 kts 326°
2026-05-04 20:24 51.95742 -127.62823 23920 ft 297 kts 326°
2026-05-04 20:24 51.97409 -127.64768 23917 ft 297 kts 326°
2026-05-04 20:24 51.99084 -127.66725 23916 ft 297 kts 325°
2026-05-04 20:25 52.00767 -127.68694 23919 ft 297 kts 325°
2026-05-04 20:25 52.02441 -127.70653 23925 ft 298 kts 325°
2026-05-04 20:25 52.04126 -127.72626 23924 ft 299 kts 325°
2026-05-04 20:25 52.05793 -127.74581 23920 ft 299 kts 325°
2026-05-04 20:26 52.07486 -127.76567 23919 ft 300 kts 325°
2026-05-04 20:26 52.09168 -127.78544 23919 ft 300 kts 325°
2026-05-04 20:26 52.10872 -127.80548 23921 ft 300 kts 325°
2026-05-04 20:26 52.12558 -127.82533 23915 ft 301 kts 325°
2026-05-04 20:27 52.14256 -127.84533 23907 ft 301 kts 325°
2026-05-04 20:27 52.15945 -127.86526 23900 ft 302 kts 325°
2026-05-04 20:27 52.17633 -127.88519 23905 ft 302 kts 325°
2026-05-04 20:27 52.19335 -127.90530 23901 ft 302 kts 325°
2026-05-04 20:28 52.21034 -127.92539 23900 ft 302 kts 325°
2026-05-04 20:28 52.22729 -127.94546 23900 ft 303 kts 325°
2026-05-04 20:28 52.24423 -127.96554 23896 ft 303 kts 325°
2026-05-04 20:28 52.26136 -127.98586 23902 ft 303 kts 325°
2026-05-04 20:29 52.27840 -128.00609 23901 ft 303 kts 325°
2026-05-04 20:29 52.29522 -128.02608 23904 ft 303 kts 325°
2026-05-04 20:29 52.31227 -128.04637 23901 ft 304 kts 325°
2026-05-04 20:29 52.32946 -128.06683 23903 ft 304 kts 325°
2026-05-04 20:30 52.34639 -128.08701 23900 ft 305 kts 325°
2026-05-04 20:30 52.36353 -128.10747 23902 ft 305 kts 325°
2026-05-04 20:30 52.38062 -128.12787 23902 ft 306 kts 324°
2026-05-04 20:30 52.39777 -128.14838 23899 ft 306 kts 324°
2026-05-04 20:31 52.41497 -128.16895 23901 ft 306 kts 324°
2026-05-04 20:31 52.43219 -128.18959 23900 ft 306 kts 324°
2026-05-04 20:31 52.44919 -128.20998 23896 ft 306 kts 324°
2026-05-04 20:31 52.46635 -128.23056 23896 ft 306 kts 324°
2026-05-04 20:32 52.48357 -128.25125 23897 ft 307 kts 324°
2026-05-04 20:32 52.50068 -128.27184 23896 ft 307 kts 324°
2026-05-04 20:32 52.51783 -128.29248 23896 ft 307 kts 324°
2026-05-04 20:32 52.53493 -128.31308 23899 ft 306 kts 324°
2026-05-04 20:33 52.55209 -128.33379 23902 ft 307 kts 324°
2026-05-04 20:33 52.56927 -128.35452 23906 ft 307 kts 324°
2026-05-04 20:33 52.58644 -128.37527 23913 ft 307 kts 324°
2026-05-04 20:33 52.60361 -128.39604 23915 ft 307 kts 324°
2026-05-04 20:34 52.62073 -128.41678 23915 ft 307 kts 324°
2026-05-04 20:34 52.63782 -128.43750 23920 ft 307 kts 324°
2026-05-04 20:34 52.65511 -128.45847 23926 ft 307 kts 324°
2026-05-04 20:34 52.67213 -128.47914 23926 ft 308 kts 324°
2026-05-04 20:35 52.68937 -128.50011 23929 ft 308 kts 324°
2026-05-04 20:35 52.70669 -128.52118 23927 ft 308 kts 324°
2026-05-04 20:35 52.72389 -128.54215 23927 ft 308 kts 324°
2026-05-04 20:35 52.74101 -128.56300 23926 ft 308 kts 324°
2026-05-04 20:36 52.75806 -128.58383 23923 ft 308 kts 324°
2026-05-04 20:36 52.77545 -128.60507 23922 ft 309 kts 324°
2026-05-04 20:36 52.79268 -128.62616 23918 ft 309 kts 324°
2026-05-04 20:36 52.80973 -128.64703 23913 ft 309 kts 324°
2026-05-04 20:37 52.82704 -128.66824 23905 ft 310 kts 323°
2026-05-04 20:37 52.84425 -128.68936 23904 ft 310 kts 323°
2026-05-04 20:37 52.86162 -128.71071 23901 ft 310 kts 323°
2026-05-04 20:37 52.87872 -128.73173 23897 ft 310 kts 323°
2026-05-04 20:38 52.89612 -128.75313 23893 ft 310 kts 323°
2026-05-04 20:38 52.91330 -128.77429 23891 ft 310 kts 323°
2026-05-04 20:38 52.93062 -128.79565 23891 ft 310 kts 323°
2026-05-04 20:38 52.94774 -128.81677 23895 ft 310 kts 323°
2026-05-04 20:39 52.96514 -128.83829 23897 ft 310 kts 323°
2026-05-04 20:39 52.98225 -128.85945 23894 ft 309 kts 323°
2026-05-04 20:39 52.99955 -128.88088 23890 ft 309 kts 323°
2026-05-04 20:39 53.01662 -128.90204 23889 ft 309 kts 323°
2026-05-04 20:40 53.03388 -128.92345 23895 ft 308 kts 323°
2026-05-04 20:40 53.05094 -128.94464 23894 ft 308 kts 323°
2026-05-04 20:40 53.06817 -128.96606 23893 ft 309 kts 323°
2026-05-04 20:40 53.08519 -128.98724 23897 ft 309 kts 323°
2026-05-04 20:41 53.10231 -129.00858 23906 ft 308 kts 323°
2026-05-04 20:41 53.11960 -129.03014 23901 ft 308 kts 323°
2026-05-04 20:41 53.13682 -129.05164 23904 ft 308 kts 323°
2026-05-04 20:41 53.15380 -129.07285 23907 ft 308 kts 323°
2026-05-04 20:42 53.17104 -129.09441 23899 ft 309 kts 323°
2026-05-04 20:42 53.18798 -129.11563 23898 ft 308 kts 323°
2026-05-04 20:42 53.20517 -129.13718 23914 ft 308 kts 323°
2026-05-04 20:42 53.22232 -129.15869 23923 ft 308 kts 323°
2026-05-04 20:43 53.23926 -129.17996 23926 ft 308 kts 323°
2026-05-04 20:43 53.25633 -129.20143 23926 ft 308 kts 323°
2026-05-04 20:43 53.27345 -129.22298 23926 ft 308 kts 323°
2026-05-04 20:43 53.29059 -129.24457 23932 ft 308 kts 323°
2026-05-04 20:44 53.30749 -129.26588 23936 ft 309 kts 323°
2026-05-04 20:44 53.32485 -129.28780 23928 ft 310 kts 323°
2026-05-04 20:44 53.34188 -129.30931 23896 ft 312 kts 323°
2026-05-04 20:44 53.35936 -129.33141 23726 ft 317 kts 323°
2026-05-04 20:45 53.37692 -129.35367 23338 ft 320 kts 323°
2026-05-04 20:45 53.39474 -129.37627 22881 ft 325 kts 323°
2026-05-04 20:45 53.41275 -129.39914 22397 ft 328 kts 323°
2026-05-04 20:45 53.43108 -129.42246 21908 ft 328 kts 323°
2026-05-04 20:46 53.44900 -129.44528 21430 ft 328 kts 323°
2026-05-04 20:46 53.46719 -129.46848 20937 ft 327 kts 322°
2026-05-04 20:46 53.48511 -129.49135 20453 ft 326 kts 323°
2026-05-04 20:46 53.50314 -129.51439 19977 ft 324 kts 322°
2026-05-04 20:47 53.52088 -129.53708 19496 ft 323 kts 322°
2026-05-04 20:47 53.53868 -129.55983 19010 ft 322 kts 322°
2026-05-04 20:47 53.55638 -129.58250 18533 ft 321 kts 322°
2026-05-04 20:47 53.57402 -129.60512 18049 ft 319 kts 323°
2026-05-04 20:48 53.59158 -129.62766 17590 ft 318 kts 323°
2026-05-04 20:48 53.60896 -129.64998 17110 ft 317 kts 323°
2026-05-04 20:48 53.62657 -129.67264 16627 ft 316 kts 322°
2026-05-04 20:48 53.64390 -129.69495 16161 ft 316 kts 322°
2026-05-04 20:49 53.66131 -129.71739 15738 ft 313 kts 322°
2026-05-04 20:49 53.67851 -129.73956 15298 ft 312 kts 322°
2026-05-04 20:49 53.69566 -129.76172 14833 ft 311 kts 322°
2026-05-04 20:49 53.71265 -129.78369 14369 ft 311 kts 322°
2026-05-04 20:50 53.72973 -129.80579 13909 ft 310 kts 322°
2026-05-04 20:50 53.74681 -129.82791 13443 ft 310 kts 322°
2026-05-04 20:50 53.76384 -129.84998 12977 ft 309 kts 323°
2026-05-04 20:50 53.78088 -129.87212 12517 ft 309 kts 323°
2026-05-04 20:51 53.79782 -129.89414 12041 ft 305 kts 323°
2026-05-04 20:51 53.81433 -129.91568 11588 ft 296 kts 322°
2026-05-04 20:51 53.83028 -129.93649 11148 ft 287 kts 323°
2026-05-04 20:51 53.84576 -129.95671 10730 ft 280 kts 323°
2026-05-04 20:52 53.86089 -129.97647 10323 ft 273 kts 323°
2026-05-04 20:52 53.87578 -129.99594 9930 ft 269 kts 323°
2026-05-04 20:52 53.89066 -130.01537 9523 ft 270 kts 323°
2026-05-04 20:52 53.90537 -130.03459 9125 ft 267 kts 323°
2026-05-04 20:53 53.91989 -130.05360 8737 ft 264 kts 323°
2026-05-04 20:53 53.93428 -130.07246 8346 ft 261 kts 323°
2026-05-04 20:53 53.94861 -130.09125 7958 ft 258 kts 323°
2026-05-04 20:53 53.96267 -130.10971 7578 ft 256 kts 323°
2026-05-04 20:54 53.97666 -130.12810 7187 ft 254 kts 323°
2026-05-04 20:54 53.99052 -130.14633 6807 ft 251 kts 323°
2026-05-04 20:54 54.00406 -130.16419 6433 ft 248 kts 323°
2026-05-04 20:54 54.01757 -130.18199 6065 ft 245 kts 323°
2026-05-04 20:55 54.03098 -130.19968 5704 ft 243 kts 323°
2026-05-04 20:55 54.04431 -130.21729 5335 ft 241 kts 324°
2026-05-04 20:55 54.05744 -130.23453 4982 ft 236 kts 326°
2026-05-04 20:55 54.07115 -130.24893 4660 ft 230 kts 333°
2026-05-04 20:56 54.08490 -130.26140 4359 ft 223 kts 334°
2026-05-04 20:56 54.09849 -130.27368 4065 ft 216 kts 334°
2026-05-04 20:56 54.11145 -130.28540 3786 ft 209 kts 335°
2026-05-04 20:56 54.12405 -130.29680 3515 ft 205 kts 335°
2026-05-04 20:57 54.13658 -130.30811 3242 ft 203 kts 335°
2026-05-04 20:57 54.14903 -130.31940 2981 ft 201 kts 335°
2026-05-04 20:57 54.16124 -130.33049 2718 ft 199 kts 335°
2026-05-04 20:57 54.17344 -130.34158 2452 ft 197 kts 334°
2026-05-04 20:58 54.18532 -130.35243 2220 ft 193 kts 335°
2026-05-04 20:58 54.19687 -130.36301 1951 ft 185 kts 334°
2026-05-04 20:58 54.20779 -130.37303 1700 ft 172 kts 334°
2026-05-04 20:58 54.21794 -130.38235 1492 ft 159 kts 335°
2026-05-04 20:59 54.22745 -130.39107 1290 ft 154 kts 335°
2026-05-04 20:59 54.23676 -130.39955 1081 ft 149 kts 334°
2026-05-04 20:59 54.24574 -130.40776 879 ft 143 kts 334°
2026-05-04 20:59 54.25426 -130.41556 684 ft 136 kts 334°
2026-05-04 21:00 54.26234 -130.42303 528 ft 129 kts 333°
2026-05-04 21:00 54.27020 -130.43022 362 ft 127 kts 333°
2026-05-04 21:00 54.27795 -130.43741 192 ft 127 kts 334°
2026-05-04 21:00 54.28502 -130.44386 133 ft 93 kts 332°
2026-05-04 21:01 54.28907 -130.44760 126 ft 33 kts 333°
2026-05-04 21:01 54.29015 -130.44768 125 ft 11 kts 57°
2026-05-04 21:01 54.29048 -130.44661 126 ft 8 kts 63°
2026-05-04 21:01 54.29078 -130.44598 127 ft 6 kts 19°
2026-05-04 21:02 54.29143 -130.44641 127 ft 17 kts 332°
2026-05-04 21:02 54.29241 -130.44728 125 ft 10 kts 359°
2026-05-04 21:02 54.29258 -130.44704 126 ft 1 kts 96°
2026-05-04 21:02 54.29251 -130.44659 127 ft 2 kts 107°
2026-05-04 21:03 54.29250 -130.44656 127 ft 0 kts 106°